EW8485 Weather Reports


Display with metric or nautical units.
time (UTC)temp
F
wind
direction
speed
MPH
gust
MPH
rain 1hr
in
rain 24hr
in
rain mn
in
humidity
%
barometer
mb
20210925030259 66 89 0.0 0.0 0.00 0.00 0.00 74 1014.4
20210925025752 66 67 0.0 0.0 0.00 0.00 0.00 74 1014.3
20210925025252 67 122 0.0 0.0 0.00 0.00 0.00 74 1014.3
20210925024749 67 122 0.0 0.0 0.00 0.00 0.00 74 1014.2
20210925024247 67 122 0.0 0.0 0.00 0.00 0.00 73 1014.3
20210925023747 67 122 0.0 0.0 0.00 0.00 0.00 73 1014.3
20210925023244 67 122 0.0 0.0 0.00 0.00 0.00 73 1014.4
20210925022746 68 122 0.0 0.0 0.00 0.00 0.00 71 1014.1
20210925022245 68 122 0.0 0.0 0.00 0.00 0.00 71 1014.2
20210925021743 68 134 0.0 0.0 0.00 0.00 0.00 71 1014.1
20210925021241 69 134 0.0 0.0 0.00 0.00 0.00 70 1014.1
20210925020742 69 135 0.0 0.0 0.00 0.00 0.00 70 1014.0
20210925020235 69 93 0.0 0.0 0.00 0.00 0.00 69 1013.9
20210925015733 69 115 0.0 0.0 0.00 0.00 0.00 69 1013.9
20210925015232 70 118 0.0 0.0 0.00 0.00 0.00 68 1013.8
20210925014729 70 118 0.0 0.0 0.00 0.00 0.00 67 1013.8
20210925014229 70 119 0.0 0.0 0.00 0.00 0.00 67 1013.7
20210925013726 71 118 0.0 0.0 0.00 0.00 0.00 66 1013.7
20210925013225 71 122 0.0 0.0 0.00 0.00 0.00 66 1013.7
20210925012723 71 110 0.0 0.0 0.00 0.00 0.00 65 1013.7
20210925012221 71 122 0.0 0.0 0.00 0.00 0.00 65 1013.7
20210925011719 71 111 0.0 0.0 0.00 0.00 0.00 64 1013.6
20210925011219 72 134 0.0 0.0 0.00 0.00 0.00 64 1013.6
20210925010714 72 113 0.0 0.0 0.00 0.00 0.00 63 1013.5
20210925010214 72 120 0.0 0.0 0.00 0.00 0.00 62 1013.5
20210925005715 72 121 0.0 0.0 0.00 0.00 0.00 61 1013.4
20210925005215 73 129 0.0 0.0 0.00 0.00 0.00 60 1013.5
20210925004714 73 129 0.0 0.0 0.00 0.00 0.00 60 1013.4
20210925004215 73 121 0.0 0.0 0.00 0.00 0.00 58 1013.4
20210925003715 74 122 0.0 0.0 0.00 0.00 0.00 58 1013.3
20210925003212 75 101 0.0 0.0 0.00 0.00 0.00 57 1013.2
20210925002714 75 104 0.0 0.0 0.00 0.00 0.00 56 1013.1
20210925002213 76 92 0.0 0.0 0.00 0.00 0.00 55 1013.2
20210925001711 76 85 0.0 0.0 0.00 0.00 0.00 54 1013.2
20210925001209 77 101 0.0 0.0 0.00 0.00 0.00 53 1013.2
20210925000710 77 83 0.0 0.0 0.00 0.00 0.00 51 1013.2
20210925000207 78 106 0.0 0.0 0.00 0.00 0.00 50 1013.3
20210924235706 79 116 0.0 0.0 0.00 0.00 0.00 48 1013.3
20210924235206 80 108 0.0 0.0 0.00 0.00 0.00 46 1013.3
20210924234706 80 143 0.0 0.0 0.00 0.00 0.00 45 1013.3
20210924234203 80 106 0.0 0.0 0.00 0.00 0.00 44 1013.3
20210924233703 81 113 0.0 0.0 0.00 0.00 0.00 43 1013.3
20210924233157 81 98 0.0 0.0 0.00 0.00 0.00 42 1013.3
20210924232655 81 94 0.0 0.0 0.00 0.00 0.00 41 1013.4
20210924232153 82 110 0.0 0.0 0.00 0.00 0.00 40 1013.3
20210924231652 82 96 0.0 0.0 0.00 0.00 0.00 38 1013.4
20210924231152 82 122 0.0 0.0 0.00 0.00 0.00 38 1013.4
20210924230644 82 121 0.0 0.0 0.00 0.00 0.00 38 1013.4
20210924230142 82 95 0.0 0.0 0.00 0.00 0.00 38 1013.4
20210924225641 82 100 0.0 0.0 0.00 0.00 0.00 38 1013.4
20210924225144 82 84 0.0 0.0 0.00 0.00 0.00 37 1013.4
20210924224643 82 78 0.0 0.0 0.00 0.00 0.00 37 1013.4
20210924224144 82 63 0.0 0.0 0.00 0.00 0.00 37 1013.4
20210924223641 82 55 0.0 0.0 0.00 0.00 0.00 37 1013.3
20210924223140 82 89 0.0 0.0 0.00 0.00 0.00 37 1013.4
20210924222637 82 104 0.0 0.0 0.00 0.00 0.00 37 1013.4
20210924222134 83 38 0.0 0.0 0.00 0.00 0.00 36 1013.4
20210924221635 82 59 0.0 0.0 0.00 0.00 0.00 35 1013.4
20210924221135 82 103 0.0 0.0 0.00 0.00 0.00 33 1013.5
20210924220628 83 104 0.0 0.0 0.00 0.00 0.00 33 1013.4
20210924220129 82 92 0.0 0.0 0.00 0.00 0.00 35 1013.5
20210924215629 82 116 0.0 0.0 0.00 0.00 0.00 34 1013.4
20210924215128 83 133 0.0 1.0 0.00 0.00 0.00 35 1013.4
20210924214628 83 77 0.0 1.0 0.00 0.00 0.00 34 1013.4
20210924214127 83 106 0.0 0.0 0.00 0.00 0.00 35 1013.3
20210924213632 84 93 0.0 0.0 0.00 0.00 0.00 35 1013.2
20210924213127 83 117 0.0 0.0 0.00 0.00 0.00 36 1013.3
20210924212623 83 148 0.0 0.0 0.00 0.00 0.00 35 1013.3
20210924212122 83 71 0.0 1.0 0.00 0.00 0.00 34 1013.4
20210924211623 83 73 0.0 1.0 0.00 0.00 0.00 35 1013.4
20210924211122 83 80 0.0 1.0 0.00 0.00 0.00 33 1013.4
20210924210623 83 167 0.0 0.0 0.00 0.00 0.00 36 1013.4
20210924210123 83 114 0.0 0.0 0.00 0.00 0.00 35 1013.5
20210924205618 83 93 0.0 0.0 0.00 0.00 0.00 34 1013.6
20210924205119 83 60 0.0 0.0 0.00 0.00 0.00 35 1013.5
20210924204619 83 160 0.0 0.0 0.00 0.00 0.00 35 1013.6
20210924204118 83 39 0.0 0.0 0.00 0.00 0.00 35 1013.5
20210924203619 83 89 0.0 0.0 0.00 0.00 0.00 36 1013.6
20210924203121 83 69 0.0 0.0 0.00 0.00 0.00 36 1013.7
20210924202614 83 57 0.0 7.0 0.00 0.00 0.00 37 1013.7
20210924202115 83 73 0.0 7.0 0.00 0.00 0.00 37 1013.7
20210924201616 83 88 0.0 1.0 0.00 0.00 0.00 38 1013.7
20210924201114 83 188 0.0 1.0 0.00 0.00 0.00 39 1013.7
20210924200613 83 75 0.0 0.0 0.00 0.00 0.00 40 1013.7
20210924200116 83 63 0.0 0.0 0.00 0.00 0.00 40 1013.7
20210924195610 83 89 0.0 0.0 0.00 0.00 0.00 40 1013.9
20210924195111 82 73 0.0 3.0 0.00 0.00 0.00 41 1013.9
20210924194611 83 83 0.0 3.0 0.00 0.00 0.00 41 1014.0
20210924194110 83 65 0.0 1.0 0.00 0.00 0.00 41 1014.0
20210924193610 83 54 0.0 0.0 0.00 0.00 0.00 41 1014.0
20210924193111 83 97 0.0 1.0 0.00 0.00 0.00 42 1014.1
20210924192605 82 60 0.0 8.0 0.00 0.00 0.00 42 1014.2
20210924192107 82 93 0.0 8.0 0.00 0.00 0.00 42 1014.2
20210924191607 82 82 0.0 1.0 0.00 0.00 0.00 42 1014.4
20210924191105 82 34 0.0 1.0 0.00 0.00 0.00 42 1014.5
20210924190606 82 68 0.0 2.0 0.00 0.00 0.00 44 1014.5
20210924190107 82 51 0.0 2.0 0.00 0.00 0.00 45 1014.5
20210924185606 82 213 0.0 1.0 0.00 0.00 0.00 46 1014.6
20210924185106 82 122 0.0 1.0 0.00 0.00 0.00 47 1014.8
20210924184606 82 61 0.0 5.0 0.00 0.00 0.00 46 1014.8
20210924184105 82 89 0.0 5.0 0.00 0.00 0.00 47 1014.8
20210924183605 82 74 0.0 1.0 0.00 0.00 0.00 47 1014.8
20210924183106 81 30 0.0 1.0 0.00 0.00 0.00 48 1014.9
20210924182606 81 56 0.0 0.0 0.00 0.00 0.00 48 1014.9
20210924182104 81 74 0.0 0.0 0.00 0.00 0.00 47 1015.0
20210924181557 81 51 0.0 1.0 0.00 0.00 0.00 48 1015.1
20210924181058 81 44 0.0 1.0 0.00 0.00 0.00 49 1015.2
20210924180558 81 27 0.0 0.0 0.00 0.00 0.00 52 1015.3
20210924180059 81 312 0.0 0.0 0.00 0.00 0.00 50 1015.3
20210924175558 81 58 0.0 0.0 0.00 0.00 0.00 49 1015.4
20210924175058 80 58 0.0 0.0 0.00 0.00 0.00 51 1015.5
20210924174552 80 57 0.0 0.0 0.00 0.00 0.00 50 1015.5
20210924174050 80 41 0.0 0.0 0.00 0.00 0.00 50 1015.6
20210924173550 80 101 0.0 0.0 0.00 0.00 0.00 53 1015.8
20210924173047 79 67 0.0 0.0 0.00 0.00 0.00 54 1015.8
20210924172548 80 86 0.0 0.0 0.00 0.00 0.00 52 1015.9
20210924172048 80 75 0.0 0.0 0.00 0.00 0.00 53 1016.0
20210924171542 80 64 0.0 0.0 0.00 0.00 0.00 52 1016.0
20210924171041 79 15 0.0 0.0 0.00 0.00 0.00 54 1016.0
20210924170539 79 77 0.0 0.0 0.00 0.00 0.00 53 1016.0
20210924170041 80 80 0.0 0.0 0.00 0.00 0.00 53 1016.0
20210924165542 80 42 0.0 0.0 0.00 0.00 0.00 52 1016.1
20210924165041 80 57 0.0 0.0 0.00 0.00 0.00 52 1016.1
20210924164540 81 337 0.0 0.0 0.00 0.00 0.00 53 1016.1
20210924164034 80 136 0.0 3.0 0.00 0.00 0.00 54 1016.2
20210924163534 79 132 0.0 3.0 0.00 0.00 0.00 53 1016.3
20210924163034 78 43 0.0 1.0 0.00 0.00 0.00 53 1016.3
20210924162536 79 119 0.0 0.0 0.00 0.00 0.00 55 1016.4
20210924162034 79 56 0.0 0.0 0.00 0.00 0.00 56 1016.4
20210924161535 79 62 0.0 0.0 0.00 0.00 0.00 57 1016.3
20210924161026 78 50 0.0 2.0 0.00 0.00 0.00 57 1016.3
20210924160526 78 46 0.0 2.0 0.00 0.00 0.00 58 1016.3
20210924160026 78 101 0.0 0.0 0.00 0.00 0.00 57 1016.4
20210924155525 78 20 0.0 0.0 0.00 0.00 0.00 57 1016.4
20210924155025 77 65 0.0 1.0 0.00 0.00 0.00 59 1016.3
20210924154524 77 52 0.0 7.0 0.00 0.00 0.00 60 1016.2
20210924154022 77 56 0.0 7.0 0.00 0.00 0.00 59 1016.2
20210924153521 77 57 0.0 0.0 0.00 0.00 0.00 61 1016.2
20210924153020 77 16 0.0 0.0 0.00 0.00 0.00 62 1016.2
20210924152520 77 72 0.0 0.0 0.00 0.00 0.00 63 1016.2
20210924152020 76 30 0.0 0.0 0.00 0.00 0.00 64 1016.2
20210924151518 76 61 0.0 0.0 0.00 0.00 0.00 63 1016.2
20210924151016 76 86 0.0 0.0 0.00 0.00 0.00 66 1016.2
20210924150515 76 94 0.0 0.0 0.00 0.00 0.00 67 1016.2
20210924150017 75 68 0.0 0.0 0.00 0.00 0.00 68 1016.2
20210924145516 75 56 0.0 0.0 0.00 0.00 0.00 66 1016.2
20210924145011 75 54 0.0 0.0 0.00 0.00 0.00 68 1016.2
20210924144511 74 61 0.0 0.0 0.00 0.00 0.00 69 1016.1
20210924144010 74 95 0.0 0.0 0.00 0.00 0.00 70 1016.1
20210924143511 74 25 0.0 0.0 0.00 0.00 0.00 70 1016.0
20210924143010 73 53 0.0 0.0 0.00 0.00 0.00 70 1015.9
20210924142507 73 56 0.0 0.0 0.00 0.00 0.00 72 1015.8
20210924142001 72 62 0.0 0.0 0.00 0.00 0.00 72 1015.8
20210924141500 72 29 0.0 0.0 0.00 0.00 0.00 73 1015.7
20210924141000 72 58 0.0 0.0 0.00 0.00 0.00 75 1015.7
20210924140500 71 67 0.0 0.0 0.00 0.00 0.00 76 1015.7
20210924140001 71 42 0.0 0.0 0.00 0.00 0.00 78 1015.7
20210924135501 70 45 0.0 0.0 0.00 0.00 0.00 79 1015.7
20210924134955 70 41 0.0 0.0 0.00 0.00 0.00 81 1015.7
20210924134452 69 120 0.0 0.0 0.00 0.00 0.00 82 1015.7
20210924133950 69 121 0.0 0.0 0.00 0.00 0.00 83 1015.7
20210924133449 68 121 0.0 0.0 0.00 0.00 0.00 85 1015.5
20210924132948 67 122 0.0 0.0 0.00 0.00 0.00 88 1015.5
20210924132442 66 122 0.0 0.0 0.00 0.00 0.00 90 1015.6
20210924131940 65 122 0.0 0.0 0.00 0.00 0.00 91 1015.7
20210924131438 64 122 0.0 0.0 0.00 0.00 0.00 93 1015.6
20210924130936 64 122 0.0 0.0 0.00 0.00 0.00 96 1015.5
20210924130436 63 122 0.0 0.0 0.00 0.00 0.00 96 1015.5
20210924125933 62 122 0.0 0.0 0.00 0.00 0.00 97 1015.5
20210924125433 61 122 0.0 0.0 0.00 0.00 0.00 97 1015.5
20210924124933 60 122 0.0 0.0 0.00 0.00 0.00 97 1015.4
20210924124432 59 122 0.0 0.0 0.00 0.00 0.00 97 1015.3
20210924123931 58 122 0.0 0.0 0.00 0.00 0.00 96 1015.3
20210924123430 58 122 0.0 0.0 0.00 0.00 0.00 96 1015.3
20210924122928 58 122 0.0 0.0 0.00 0.00 0.00 97 1015.3
20210924122426 58 122 0.0 0.0 0.00 0.00 0.00 97 1015.3
20210924121927 57 122 0.0 0.0 0.00 0.00 0.00 96 1015.4
20210924121426 57 122 0.0 0.0 0.00 0.00 0.00 96 1015.3
20210924120924 57 122 0.0 0.0 0.00 0.00 0.00 96 1015.3
20210924120424 57 122 0.0 0.0 0.00 0.00 0.00 96 1015.2
20210924115920 57 122 0.0 0.0 0.00 0.00 0.00 96 1015.1
20210924115425 57 122 0.0 0.0 0.00 0.00 0.00 96 1015.0
20210924114917 57 122 0.0 0.0 0.00 0.00 0.00 96 1015.0
20210924114418 57 122 0.0 0.0 0.00 0.00 0.00 96 1015.0
20210924113919 57 122 0.0 0.0 0.00 0.00 0.00 96 1014.9
20210924113418 57 122 0.0 0.0 0.00 0.00 0.00 96 1014.9
20210924112914 57 122 0.0 0.0 0.00 0.00 0.00 96 1014.8
20210924112414 57 122 0.0 0.0 0.00 0.00 0.00 96 1014.8
20210924111914 57 122 0.0 0.0 0.00 0.00 0.00 96 1014.9
20210924111414 57 122 0.0 0.0 0.00 0.00 0.00 96 1014.8
20210924110912 57 122 0.0 0.0 0.00 0.00 0.00 96 1014.8
20210924110412 58 122 0.0 0.0 0.00 0.00 0.00 96 1014.7
20210924105907 57 122 0.0 0.0 0.00 0.00 0.00 96 1014.6
20210924105408 58 122 0.0 0.0 0.00 0.00 0.00 96 1014.6
20210924104908 57 122 0.0 0.0 0.00 0.00 0.00 96 1014.5
20210924104409 57 122 0.0 0.0 0.00 0.00 0.00 96 1014.5
20210924103906 57 122 0.0 0.0 0.00 0.00 0.00 96 1014.5
20210924103406 57 122 0.0 0.0 0.00 0.00 0.00 95 1014.4
20210924102901 57 122 0.0 0.0 0.00 0.00 0.00 95 1014.3
20210924102358 57 122 0.0 0.0 0.00 0.00 0.00 96 1014.4
20210924101857 57 122 0.0 0.0 0.00 0.00 0.00 95 1014.4
20210924101354 57 122 0.0 0.0 0.00 0.00 0.00 95 1014.5
20210924100853 57 122 0.0 0.0 0.00 0.00 0.00 95 1014.4
20210924100350 58 122 0.0 0.0 0.00 0.00 0.00 95 1014.4
20210924095852 57 122 0.0 0.0 0.00 0.00 0.00 95 1014.3
20210924095350 57 122 0.0 0.0 0.00 0.00 0.00 95 1014.3
20210924094849 58 122 0.0 0.0 0.00 0.00 0.00 95 1014.2
20210924094348 58 122 0.0 0.0 0.00 0.00 0.00 95 1014.2
20210924093848 58 122 0.0 0.0 0.00 0.00 0.00 95 1014.2
20210924093342 58 122 0.0 0.0 0.00 0.00 0.00 95 1014.2
20210924092840 57 122 0.0 0.0 0.00 0.00 0.00 95 1014.1
20210924083829 58 122 0.0 0.0 0.00 0.00 0.00 93 1014.1
20210924083325 58 122 0.0 0.0 0.00 0.00 0.00 94 1014.2
20210924082824 58 122 0.0 0.0 0.00 0.00 0.00 94 1014.2
20210924082323 58 122 0.0 0.0 0.00 0.00 0.00 94 1014.2
20210924081819 58 122 0.0 0.0 0.00 0.00 0.00 93 1014.3
20210924081320 58 122 0.0 0.0 0.00 0.00 0.00 93 1014.2
20210924080815 58 122 0.0 0.0 0.00 0.00 0.00 93 1014.3
20210924080316 58 122 0.0 0.0 0.00 0.00 0.00 93 1014.2
20210924075817 58 122 0.0 0.0 0.00 0.00 0.00 93 1014.2
20210924075316 58 122 0.0 0.0 0.00 0.00 0.00 93 1014.2
20210924074813 58 122 0.0 0.0 0.00 0.00 0.00 93 1014.2
20210924074314 58 122 0.0 0.0 0.00 0.00 0.00 93 1014.2
20210924073808 58 122 0.0 0.0 0.00 0.00 0.00 92 1014.2
20210924073305 58 122 0.0 0.0 0.00 0.00 0.00 92 1014.3
20210924072804 58 122 0.0 0.0 0.00 0.00 0.00 92 1014.2
20210924072305 58 122 0.0 0.0 0.00 0.00 0.00 92 1014.2
20210924071802 58 122 0.0 0.0 0.00 0.00 0.00 91 1014.3
20210924071300 59 122 0.0 0.0 0.00 0.00 0.00 91 1014.3
20210924070757 59 122 0.0 0.0 0.00 0.00 0.00 91 1014.3
20210924070259 59 122 0.0 0.0 0.00 0.00 0.00 91 1014.3
20210924065756 59 122 0.0 0.0 0.00 0.00 0.00 90 1014.2
20210924065253 59 122 0.0 0.0 0.00 0.00 0.00 90 1014.2
20210924064754 59 122 0.0 0.0 0.00 0.00 0.00 90 1014.3
20210924064250 59 122 0.0 0.0 0.00 0.00 0.00 88 1014.2
20210924063748 59 122 0.0 0.0 0.00 0.00 0.00 88 1014.2
20210924063248 60 122 0.0 0.0 0.00 0.00 0.00 87 1014.2
20210924062747 60 122 0.0 0.0 0.00 0.00 0.00 87 1014.1
20210924062244 60 122 0.0 0.0 0.00 0.00 0.00 87 1014.1
20210924061742 60 122 0.0 0.0 0.00 0.00 0.00 87 1014.2
20210924061242 61 122 0.0 0.0 0.00 0.00 0.00 86 1014.2
20210924060742 61 122 0.0 0.0 0.00 0.00 0.00 87 1014.1
20210924060244 61 122 0.0 0.0 0.00 0.00 0.00 86 1014.2
20210924055744 62 122 0.0 0.0 0.00 0.00 0.00 85 1014.1
20210924055239 62 122 0.0 0.0 0.00 0.00 0.00 84 1014.1
20210924054739 62 122 0.0 0.0 0.00 0.00 0.00 84 1014.1
20210924054240 62 122 0.0 0.0 0.00 0.00 0.00 84 1014.0
20210924053740 63 122 0.0 0.0 0.00 0.00 0.00 84 1014.0
20210924053241 63 122 0.0 0.0 0.00 0.00 0.00 83 1014.1
20210924052740 63 122 0.0 0.0 0.00 0.00 0.00 81 1014.1
20210924052234 64 122 0.0 0.0 0.00 0.00 0.00 81 1014.0
20210924051735 64 122 0.0 0.0 0.00 0.00 0.00 81 1014.0
20210924051236 64 122 0.0 0.0 0.00 0.00 0.00 81 1014.1
20210924050734 64 122 0.0 0.0 0.00 0.00 0.00 81 1014.0
20210924050236 64 122 0.0 0.0 0.00 0.00 0.00 80 1014.0
20210924045734 64 122 0.0 0.0 0.00 0.00 0.00 80 1014.0
20210924045230 64 122 0.0 0.0 0.00 0.00 0.00 80 1014.0
20210924044730 64 122 0.0 0.0 0.00 0.00 0.00 80 1014.0
20210924044229 64 101 0.0 0.0 0.00 0.00 0.00 79 1014.1
20210924043727 65 101 0.0 0.0 0.00 0.00 0.00 78 1014.0
20210924043222 65 101 0.0 0.0 0.00 0.00 0.00 78 1014.0
20210924042721 65 101 0.0 0.0 0.00 0.00 0.00 77 1014.0
20210924042218 65 101 0.0 0.0 0.00 0.00 0.00 77 1014.0
20210924041715 65 101 0.0 0.0 0.00 0.00 0.00 77 1014.1
20210924041215 66 101 0.0 0.0 0.00 0.00 0.00 77 1014.1
20210924040712 66 101 0.0 0.0 0.00 0.00 0.00 76 1014.1
20210924040210 66 106 0.0 0.0 0.00 0.00 0.00 76 1014.1
20210924035711 66 116 0.0 0.0 0.00 0.00 0.00 76 1014.2
20210924035212 66 116 0.0 0.0 0.00 0.00 0.00 75 1014.2
20210924034709 66 116 0.0 0.0 0.00 0.00 0.00 75 1014.2
20210924034208 67 116 0.0 0.0 0.00 0.00 0.00 75 1014.2
20210924033702 67 119 0.0 0.0 0.00 0.00 0.00 74 1014.3
20210924033201 67 112 0.0 0.0 0.00 0.00 0.00 74 1014.2
20210924032659 67 112 0.0 0.0 0.00 0.00 0.00 73 1014.1
20210924032157 67 112 0.0 0.0 0.00 0.00 0.00 73 1014.1
20210924031658 67 110 0.0 0.0 0.00 0.00 0.00 73 1014.0
20210924031151 67 104 0.0 0.0 0.00 0.00 0.00 73 1014.1
20210924030649 67 125 0.0 0.0 0.00 0.00 0.00 72 1014.2